Location: La Fredeussais
(48.1780°N, 1.3980°W)
Time: 05:21:27
(UTC+00:00)

STARLINK-2695 - Pass Details

Date: 04 December 2021
Orbit: 546 x 548 km, 53.1° (Epoch: 25 January)

Event Time Altitude Azimuth Distance (km) Brightness Sun altitude
Rises 19:37:46 0° 289° (WNW) 2,722 8.2 -33.2°
Reaches altitude 10° 19:40:05 10° 296° (WNW) 1,827 7.0 -33.6°
Enters shadow 19:40:57 15° 300° (WNW) 1,507 6.4 -33.8°
